Regional Weather Roundup
Issued by NWS

Home | Current Version | Previous Version | Graphics & Text | Print | Product List | Glossary On
Versions: 1 2 3 4 5 6 7 8 9 10 11 12 13 14 15 16 17 18 19 20 21 22 23 24 25 26 27 28 29 30 31 32 33 34 35 36 37 38 39 40 41 42 43 44 45 46 47 48 49 50
000
ASUS43 KTOP 220608
RWRKS

WEATHER ROUNDUP FOR KANSAS
NATIONAL WEATHER SERVICE GOODLAND KS
100 AM CDT MON SEP 22 2014

NOTE:  "FAIR" INDICATES FEW OR NO CLOUDS BELOW 12,000 FEET WITH NO
SIGNIFICANT WEATHER AND/OR OBSTRUCTIONS TO VISIBILITY.

KSZ001>006-013>018-027>032-041>047-220700-
NORTHWEST KANSAS

CITY           SKY/WX    TMP DP  RH WIND       PRES   REMARKS
GOODLAND       CLOUDY    61  42  49 SE12      30.32F
6HR MIN TEMP:  56; 6HR MAX TEMP:  70;

HAYS           PTCLDY    57  39  51 NE6       30.30S
HILL CITY      PTCLDY    54  45  71 CALM      30.31S
6HR MIN TEMP:  53; 6HR MAX TEMP:  75;

RUSSELL        PTCLDY    53  45  74 E7        30.28F
6HR MIN TEMP:  53; 6HR MAX TEMP:  73;

$$

KSZ061>065-074>080-084>089-220700-
SOUTHWEST KANSAS

CITY           SKY/WX    TMP DP  RH WIND       PRES   REMARKS
DODGE CITY     PTCLDY    59  42  53 E6        30.30S
6HR MIN TEMP:  59; 6HR MAX TEMP:  75;

ELKHART          N/A     55  45  69 SE6         N/A
GARDEN CITY    PTCLDY    60  43  53 E8        30.30F
6HR MIN TEMP:  60; 6HR MAX TEMP:  75;

GREAT BEND     PTCLDY    55  46  71 CALM      30.29S
LIBERAL        CLEAR     64  43  45 E7        30.32S
PRATT          PTCLDY    55  45  67 CALM      30.30R HAZE
$$

KSZ066>073-081>083-090>101-220700-
SOUTHEAST KANSAS

CITY           SKY/WX    TMP DP  RH WIND       PRES   REMARKS
CHANUTE        CLEAR     55  51  86 NW3       30.25R
6HR MIN TEMP:  55; 6HR MAX TEMP:  73;

HUTCHINSON     CLEAR     61  45  55 NE7       30.28S
6HR MIN TEMP:  55; 6HR MAX TEMP:  75;

MEDICINE LODGE   N/A     61  43  51 NE7       30.26S
NEWTON         CLEAR     57  45  62 CALM      30.30S
PARSONS        CLEAR     58  51  78 N3        30.25R
6HR MIN TEMP:  58; 6HR MAX TEMP:  73;

WICHITA INTL   PTCLDY    63  46  54 NE7       30.26S
6HR MIN TEMP:  62; 6HR MAX TEMP:  78;

WICHITA JABRA  CLEAR     55  46  71 NE6       30.27S
6HR MIN TEMP:  55; 6HR MAX TEMP:  75;

WICHITA MCCONL CLEAR     62  46  54 NE8       30.26S
WINFIELD       CLEAR     62  48  60 NE6       30.26S
6HR MIN TEMP:  59; 6HR MAX TEMP:  76;

$$

KSZ007>012-019>026-033>040-048>060-102>105-220700-
NORTHEAST KANSAS

CITY           SKY/WX    TMP DP  RH WIND       PRES   REMARKS
CONCORDIA      CLEAR     53  47  79 SE3       30.30R
6HR MIN TEMP:  53; 6HR MAX TEMP:  71;

EMPORIA        CLEAR     54  50  86 NW3       30.27S
6HR MIN TEMP:  54; 6HR MAX TEMP:  71;

LAWRENCE       CLEAR     51  47  86 NW5       30.27R
6HR MIN TEMP:  50; 6HR MAX TEMP:  69;

MANHATTAN      CLEAR     51  48  89 CALM      30.28R
6HR MIN TEMP:  50; 6HR MAX TEMP:  74;

MARYSVILLE     CLEAR     50  46  87 N3        30.29R
OLATHE IND     CLEAR     54  48  80 N3        30.26R
6HR MIN TEMP:  54; 6HR MAX TEMP:  67;

OLATHE EXE     CLEAR     58  49  72 N6        30.25R
6HR MIN TEMP:  58; 6HR MAX TEMP:  70;

SALINA         CLEAR     58  47  66 CALM      30.29R
6HR MIN TEMP:  58; 6HR MAX TEMP:  75;

TOPEKA BILLARD CLEAR     56  50  80 CALM      30.27R
6HR MIN TEMP:  56; 6HR MAX TEMP:  71;

TOPEKA FORBES  CLEAR     50  47  89 N5        30.26S
6HR MIN TEMP:  50; 6HR MAX TEMP:  71;

$$


USA.gov is the U.S. government's official web portal to all federal, state and local government web resources and services.